Simultaneous Nadir Overpasses (SNOs) Predictions

Prediction of SNOs between GOES-14 and NOAA-20 Satellite Orbit:

Table of predicted SNOs for the next 14.0 days since TLE Epoch: 9/20/2019
Index Date Time (GOES-14) GOES-14 Lat,Lon NOAA-20 Lat,Lon Distance(km) Time Diff (sec)
1 09/22/2019 08:25:56 0.32,-104.21 0.47,-104.92 81.51 80
2 09/23/2019 08:04:31 0.32,-104.19 -0.54,-100.39 433.19 80
3 09/24/2019 20:26:29 -0.31,-104.25 -0.63,-105.70 165.27 80
4 09/25/2019 20:10:24 -0.31,-104.26 0.38,-101.17 351.34 80
5 09/27/2019 08:32:12 0.29,-104.20 0.80,-106.45 256.12 80
6 09/28/2019 08:10:48 0.30,-104.18 -0.21,-101.91 258.80 80
7 09/29/2019 20:32:45 -0.29,-104.22 -0.95,-107.23 342.64 80
8 09/30/2019 20:16:41 -0.29,-104.22 0.05,-102.70 174.35 80
9 10/02/2019 08:38:29 0.28,-104.20 1.12,-107.97 429.50 80
10 10/03/2019 08:17:05 0.29,-104.19 0.12,-103.44 85.49 80




NCC Satellite Simultaneous Nadir Overpasses (SNOs) Prediction Service
